Starlink 31476

operational
NORAD ID: 59523 Int'l Des: 2024-073 Owner: SPXS Country: US Constellation: starlink
LEOCIRCULAR

Über Starlink 31476

Beschreibung wird geladen...

Live-Position

3D-Globus wird geladen...

Nächste Überflüge

Höhenverlauf

Altitude vs Time

uPlot chart will show altitude changes over time

Zweizeiliger Elementsatz

1 59523U 24073N 25353.19723086 .00000251 00000-0 18631-4 0 9995
2 59523 42.9980 52.7447 0000842 264.0038 96.0718 15.27574039 93864
Epoch: 19. Dez. 2025 • Age: 6 hours

Aktueller Status

Höhe 490.7 km
Geschwindigkeit 7.62 km/s
Subsatellitenpunkt -29.94°S, 123.02°E
Startdatum 17. Apr. 2024
Alter 1.6 years
Typ internet

Technische Details

Klassifizierung Payload
Masse 730.00 kg
Trockenmasse 700.00 kg
Gesamtmasse 730.00 kg
Länge 0.30 m
Durchmesser 4.10 m
Spannweite 29.00 m
Form Box + pan
Hersteller SPXS
Bus-Typ Starlink V2M
Phasenstatus In Orbit
Besitzer/Staat SPXS/US

Große Konstellationen

Loading constellations...